Regional Weather Roundup
Issued by NWS

Home | Current Version | Previous Version | Text Only | Print | Product List | Glossary Off
Versions: 1 2 3 4 5 6 7 8 9 10 11 12 13 14 15 16 17 18 19 20 21 22 23 24 25 26 27 28 29 30 31 32 33 34 35 36 37 38 39 40 41 42 43 44 45 46 47 48 49 50

000
ASUS44 KMEG 180910
RWRTN
TENNESSEE HOURLY STATE WEATHER ROUNDUP
NATIONAL WEATHER SERVICE MEMPHIS TN
300 AM CST MON DEC 18 2017

TNZ002-004-019-021-049-052-054-088>092-181000-
WEST TENNESSEE

CITY           SKY/WX    TMP DP  RH WIND       PRES   REMARKS
MEMPHIS INTL   CLOUDY    45  45 100 SW8       30.16R
NWS MEMPHIS      N/A     46 N/A N/A MISG        N/A
JACKSON        CLOUDY    47  46  97 SW5       30.16R FOG
DYERSBURG      CLOUDY    45  45 100 CALM      30.15S FOG
SOMERVILLE     CLOUDY    48  48 100 CALM      30.14S FOG
COVINGTON      CLOUDY    46  46 100 CALM      30.15F FOG
UNION CITY     CLOUDY    45  45 100 S5        30.13R FOG
BOLIVAR        CLOUDY    48  46  93 CALM      30.15S FOG
PARIS          CLOUDY    45  45 100 SW8       30.12S FOG
HUNTINGDON     CLOUDY    46  46 100 CALM      30.13R FOG
LEXINGTON      CLOUDY    46  46 100 SW5       30.15S FOG
SELMER         CLOUDY    46  46 100 CALM      30.15R FOG
SAVANNAH       FOG       48  48 100 CALM      30.15S VSB 1/2
$$

TNZ008-025-027-028-033-062-065-066-181000-
NORTH MIDDLE TENNESSEE

CITY           SKY/WX    TMP DP  RH WIND       PRES   REMARKS
NASHVILLE      CLOUDY    47  46  97 S3        30.14F FOG
PORTLAND       CLOUDY    46  46 100 S5        30.12F FOG
CLARKSVILLE    CLOUDY    46  43  89 CALM      30.13S FOG
SMYRNA         CLOUDY    46  46 100 S3        30.16S FOG
COOKEVILLE     CLOUDY    46  46 100 CALM      30.14S FOG
GALLATIN       CLOUDY    46  46 100 CALM      30.16S FOG
CROSSVILLE     CLOUDY    43  42  97 CALM      30.15R FOG
$$

TNZ061-075-076-078-094-096-097-181000-
SOUTH MIDDLE TENNESSEE

CITY           SKY/WX    TMP DP  RH WIND       PRES   REMARKS
FAYETTEVILLE   CLOUDY    46  46 100 S5        30.14S FOG
TULLAHOMA      FOG       46  46 100 CALM      30.14S VSB 3/4
WINCHESTER     CLOUDY    45  45 100 E6        30.15S
MCMINNVILLE    FOG       46  46 100 CALM      30.14F VSB 1/4
COLUMBIA       CLOUDY    46  46 100 CALM      30.13S FOG
SHELBYVILLE    FOG       46  46 100 SW5       30.16R VSB 3/4
$$

TNZ017-018-042-046-047-181000-
NORTHEAST TENNESSEE

CITY           SKY/WX    TMP DP  RH WIND       PRES   REMARKS
TRI CITIES     CLOUDY    39  39 100 CALM      30.17S FOG
ELIZABETHTON   CLOUDY    41  41 100 CALM      30.16S FOG
$$

TNZ012-013-036-069-073-074-181000-
CENTRAL EAST TENNESSEE

CITY           SKY/WX    TMP DP  RH WIND       PRES   REMARKS
KNOXVILLE      DRZL/FOG  40  40 100 N5        30.17S VSB 1
OAK RIDGE      CLOUDY    42  42 100 CALM      30.18S FOG
DOWNTOWN KNOXV FOG       41  41 100 CALM      30.19S VSB 1
GATLINBURG     CLOUDY    41  39  93 CALM      30.17F FOG
MORRISTOWN     FOG       39  39 100 NE3       30.16S VSB 3/4
JACKSBORO      FOG       41  41 100 CALM      30.20S VSB 1
$$

TNZ083-085-099-181000-
SOUTHEAST TENNESSEE

CITY           SKY/WX    TMP DP  RH WIND       PRES   REMARKS
CHATTANOOGA    CLOUDY    43  42  97 CALM      30.17F FOG
DAYTON         FOG       43  43 100 CALM      30.17S VSB 1/4
$$

SKY/WX REPORTED AS FAIR MEANS FEW OR NO CLOUDS BELOW
12 THOUSAND FEET.





USA.gov is the U.S. government's official web portal to all federal, state and local government web resources and services.